User: anonymous   Login
Location: Bergnershof
(48.9468°N, 10.9431°E)
Time: 15:56:24
(UTC+00:00)
Language:

Resurs 1-3 - Orbit

View from above orbital plane
View from above orbital plane
View from above satellite
View from above satellite

Ground track
Ground track

The orbit data is extracted from the following two-line orbital elements,

1 23342U 94074A   21131.73051039  .00000121  00000-0  23083-4 0  9998
2 23342  97.8807 181.2994 0002128  73.9385 286.2061 14.79415078428125
Epoch (UTC): 11 May 2021 17:31:56
Eccentricity: 0.0002128
inclination: 97.8807°
perigee height: 629 km
apogee height: 632 km
right ascension of ascending node: 181.2994°
argument of perigee: 73.9385°
revolutions per day: 14.79415078
mean anomaly at epoch: 286.2061°
orbit number at epoch: 42812

The dashed part of the orbit path shows where the satellite is in the earth's shadow,  

DLR